User: anonymous   Login
Location: Bethera
(33.2010°N, 79.7880°W)
Time: 02:38:52
(UTC-04:00)
Language:

Cosmos 1833 Rocket - Orbit

View from above orbital plane
View from above orbital plane
View from above satellite
View from above satellite

Ground track
Ground track

The orbit data is extracted from the following two-line orbital elements,

1 17590U 87027B   17232.59394257 -.00000114 +00000-0 -33002-4 0  9995
2 17590 071.0042 014.3496 0006349 223.8802 136.1818 14.16744326573014
Epoch (UTC): 20 August 2017 14:15:16
Eccentricity: 0.0006349
inclination: 71.0042°
perigee height: 832 km
apogee height: 841 km
right ascension of ascending node: 14.3496°
argument of perigee: 223.8802°
revolutions per day: 14.16744326
mean anomaly at epoch: 136.1818°
orbit number at epoch: 57301

The dashed part of the orbit path shows where the satellite is in the earth's shadow,  

DLR